Content
SEND FEEDBACK

Daily
Averages
Monthly
Summary
United States of America

KENSAL, NORTH DAKOTA


Home > North America > United States > North Dakota
Elevation: 145 feet     Latitude: 47 16N     Longitude: 098 52W

WEATHER
 
SELECT A DAY
Number of Records: 203,905;   Date Range: 1/1/95 - 8/12/14
 
SHARE

PRINT THIS DATA

[ ← Previous Day ]
WEATHER ALMANAC - FEBRUARY 13, 2013
[ Next Day → ]
[ °C ]   °F
Weather ElementAverageHighLow
Temperature29.1 °F33.8 °F (2:05 pm)21.9 °F (11:56 pm)
Dewpoint26.1 °F30.2 °F (1:43 pm)19.9 °F (11:56 pm)
Humidity88.5 %96 % (11:56 am)76 % (1:56 am)
Barometer29.65 in29.82 in (11:56 pm)29.54 in (1:43 pm)
Wind Speed7.5 mph13.8 mph (4:39 pm)
Weather ElementAverage
Visibility4.3 mi
Wind DirectionSSW (200.2 °)

Weather ElementTotal
Precipitation0.18 in
Heating Degree Days37.2 (Base 65)
Averaged from 48 records on February 13, 2013
WEATHER CONDITIONS BREAKOUT
WIND DIRECTION BREAKOUT
WEATHER BY HOUR - FEBRUARY 13, 2013
[ °C ]   °F
Local TimeTemperatureDewpointHumidityBarometerVisibilityWind DirectionWind SpeedGust SpeedPrecipitationEventsConditions
1:56 AM30.9 °F24.1 °F76 %29.77 in10.0 miWest (270°)10.4 mphClear
2:56 AM28.9 °F23.0 °F78 %29.76 in10.0 miWest (270°)11.5 mphClear
3:56 AM28.0 °F21.9 °F78 %29.74 in10.0 miWNW (290°)9.2 mphMostly Cloudy
4:56 AM27.0 °F21.9 °F81 %29.72 in10.0 miWest (280°)8.1 mphMostly Cloudy
5:56 AM28.0 °F21.9 °F78 %29.71 in10.0 miWest (270°)9.2 mphClear
6:56 AM27.0 °F23.0 °F85 %29.70 in10.0 miWest (260°)5.8 mphMostly Cloudy
7:56 AM27.0 °F23.0 °F85 %29.68 in10.0 miCalmOvercast
8:56 AM28.0 °F23.0 °F81 %29.67 in10.0 miSSW (210°)3.5 mphOvercast
9:22 AM28.4 °F24.8 °F86 %29.61 in1.8 miSW (220°)4.6 mph0.00 inSnowLight Snow
9:34 AM28.4 °F24.8 °F86 %29.60 in1.5 miSSW (210°)3.5 mph0.00 inSnowLight Snow
9:48 AM28.4 °F26.6 °F93 %29.60 in0.5 miSouth (180°)3.5 mph0.00 inFog-SnowSnow
9:56 AM28.0 °F26.1 °F92 %29.65 in0.8 miSouth (190°)3.5 mph0.01 inSnowLight Snow
10:11 AM28.4 °F26.6 °F93 %29.59 in1.2 miCalm0.00 inSnowLight Snow
10:35 AM28.4 °F26.6 °F93 %29.58 in0.8 miSouth (180°)3.5 mph0.01 inSnowLight Snow
10:56 AM30.0 °F28.0 °F92 %29.63 in0.8 miCalm0.02 inSnowLight Snow
11:56 AM30.0 °F28.9 °F96 %29.61 in0.8 miCalm0.03 inSnowLight Snow
12:16 PM30.2 °F28.4 °F93 %29.55 in1.0 miCalm0.01 inSnowLight Snow
12:56 PM33.1 °F28.9 °F85 %29.59 in1.2 miCalm0.02 inSnowLight Snow
1:43 PM32.0 °F30.2 °F93 %29.54 in1.5 miNorth (10°)3.5 mph0.00 inSnowLight Snow
1:50 PM32.0 °F30.2 °F93 %29.54 in2.0 miNorth (10°)3.5 mph0.00 inSnowLight Snow
1:56 PM33.1 °F30.0 °F89 %29.59 in2.0 miNNE (20°)3.5 mph0.00 inSnowLight Snow
2:05 PM33.8 °F30.2 °F87 %29.54 in1.2 miNNE (20°)4.6 mph0.01 inSnowLight Snow
2:31 PM32.0 °F30.2 °F93 %29.54 in0.8 miNNE (20°)4.6 mph0.01 inSnowLight Snow
2:52 PM32.0 °F30.2 °F93 %29.55 in1.2 miNNE (20°)6.9 mph0.02 inSnowLight Snow
2:56 PM32.0 °F30.0 °F92 %29.61 in1.2 miNorth (360°)5.8 mph0.02 inSnowLight Snow
3:42 PM32.0 °F28.4 °F87 %29.57 in2.0 miNorth (10°)9.2 mph0.01 inSnowLight Snow
3:56 PM32.0 °F28.9 °F88 %29.63 in1.8 miNorth (10°)11.5 mph0.01 inSnowLight Snow
4:06 PM30.2 °F28.4 °F93 %29.58 in2.5 miNorth (10°)10.4 mph0.00 inSnowLight Snow
4:23 PM30.2 °F28.4 °F93 %29.58 in3.0 miNorth (10°)12.7 mph0.00 inSnowLight Snow
4:39 PM30.2 °F28.4 °F93 %29.59 in6.0 miNorth (360°)13.8 mph0.00 inSnowLight Snow
4:56 PM30.9 °F28.0 °F89 %29.66 in3.0 miNorth (360°)13.8 mph0.00 inSnowLight Snow
5:38 PM30.2 °F26.6 °F86 %29.62 in2.5 miNorth (350°)12.7 mph0.00 inSnowLight Snow
5:56 PM28.9 °F26.1 °F89 %29.69 in1.8 miNorth (360°)13.8 mph0.00 inSnowLight Snow
6:09 PM28.4 °F26.6 °F93 %29.64 in2.5 miNorth (350°)12.7 mph0.00 inSnowLight Snow
6:17 PM28.4 °F26.6 °F93 %29.65 in4.0 miNorth (360°)13.8 mph0.00 inSnowLight Snow
6:26 PM28.4 °F24.8 °F86 %29.65 in2.5 miNorth (360°)12.7 mph0.00 inSnowLight Snow
6:31 PM28.4 °F24.8 °F86 %29.65 in1.8 miNorth (360°)11.5 mph0.00 inSnowLight Snow
6:36 PM28.4 °F24.8 °F86 %29.66 in2.0 miNorth (350°)9.2 mph0.00 inSnowLight Snow
6:47 PM28.4 °F24.8 °F86 %29.67 in2.5 miNorth (350°)12.7 mph0.00 inSnowLight Snow
6:56 PM28.0 °F25.0 °F88 %29.74 in2.0 miNNW (340°)13.8 mph0.00 inSnowLight Snow
7:26 PM28.4 °F24.8 °F86 %29.68 in6.0 miNNW (340°)10.4 mph0.00 inOvercast
7:56 PM27.0 °F25.0 °F92 %29.76 in10.0 miNNW (340°)9.2 mph0.00 inOvercast
8:49 PM26.6 °F24.8 °F93 %29.72 in10.0 miNNW (340°)9.2 mphOvercast
8:56 PM27.0 °F24.1 °F89 %29.78 in10.0 miNNW (340°)9.2 mphOvercast
9:56 PM27.0 °F24.1 °F89 %29.80 in10.0 miNorth (350°)10.4 mphOvercast
10:21 PM26.6 °F24.8 °F93 %29.74 in10.0 miNNW (340°)8.1 mphOvercast
10:56 PM25.0 °F21.9 °F88 %29.81 in4.0 miNNW (330°)8.1 mph0.00 inSnowLight Snow
11:56 PM21.9 °F19.9 °F92 %29.82 in4.0 miCalm0.00 inSnowLight Snow
Hourly data recorded from KJMS, located miles away from Kensal, North Dakota







STORIES FROM OUR PARTNERS